TimeEDT,TemperatureF,Dew PointF,Humidity,Sea Level PressureIn,VisibilityMPH,Wind Direction,Wind SpeedMPH,Gust SpeedMPH,PrecipitationIn,Events,Conditions,WindDirDegrees,DateUTC
12:58 AM,75.0,73.0,94,29.88,10.0,SE,6.9,-,0.01,Rain,Light Rain,130,2013-06-07 04:58:00
1:58 AM,75.9,73.9,94,29.85,10.0,ESE,8.1,-,0.01,Rain,Light Rain,120,2013-06-07 05:58:00
2:58 AM,75.0,73.9,96,29.81,2.5,ESE,11.5,16.1,0.13,Rain,Heavy Rain,110,2013-06-07 06:58:00
3:03 AM,75.2,73.4,94,29.80,3.0,ESE,11.5,17.3,0.01,Rain,Rain,120,2013-06-07 07:03:00
3:56 AM,75.2,73.4,94,29.79,2.0,SE,15.0,26.5,0.15,Rain,Heavy Rain,140,2013-06-07 07:56:00
3:58 AM,75.0,73.9,96,29.79,2.0,SSE,19.6,26.5,0.15,Rain,Rain,150,2013-06-07 07:58:00
4:03 AM,75.2,73.4,94,29.79,4.0,SSE,15.0,26.5,0.02,Rain,Rain,150,2013-06-07 08:03:00
4:50 AM,73.4,73.4,100,29.76,3.0,SSE,10.4,21.9,0.15,Rain,Rain,150,2013-06-07 08:50:00
4:58 AM,75.0,73.0,94,29.76,4.0,SSE,12.7,18.4,0.16,Rain,Rain,150,2013-06-07 08:58:00
5:07 AM,75.2,73.4,94,29.73,2.5,ESE,11.5,18.4,0.07,Rain,Heavy Rain,120,2013-06-07 09:07:00
5:16 AM,75.2,75.2,100,29.74,4.0,SSE,18.4,26.5,0.08,Rain,Light Rain,160,2013-06-07 09:16:00
5:25 AM,75.2,75.2,100,29.74,4.0,South,18.4,33.4,0.09,Rain,Light Rain,180,2013-06-07 09:25:00
5:46 AM,75.2,73.4,94,29.74,1.8,South,17.3,28.8,0.21,Rain,Heavy Rain,170,2013-06-07 09:46:00
5:52 AM,75.2,73.4,94,29.75,3.0,SSE,20.7,32.2,0.21,Rain,Light Rain,160,2013-06-07 09:52:00
5:58 AM,75.0,73.0,94,29.75,7.0,SSE,20.7,32.2,0.21,Rain,Light Rain,160,2013-06-07 09:58:00
6:05 AM,75.2,73.4,94,29.74,7.0,SSE,16.1,31.1,0.00,,Overcast,160,2013-06-07 10:05:00
6:38 AM,77.0,73.4,89,29.74,6.0,South,18.4,26.5,0.00,,Overcast,180,2013-06-07 10:38:00
6:58 AM,78.1,75.0,90,29.74,5.0,South,17.3,26.5,0.00,,Overcast,180,2013-06-07 10:58:00
7:48 AM,78.8,75.2,89,29.72,6.0,South,16.1,26.5,0.00,,Overcast,170,2013-06-07 11:48:00
7:58 AM,79.0,75.0,88,29.73,5.0,South,18.4,29.9,0.00,,Overcast,180,2013-06-07 11:58:00
8:58 AM,79.0,73.0,82,29.73,7.0,South,20.7,29.9,0.01,,Overcast,180,2013-06-07 12:58:00
9:58 AM,80.1,75.0,85,29.72,6.0,South,18.4,32.2,N/A,,Haze,170,2013-06-07 13:58:00
10:58 AM,82.0,75.0,79,29.70,5.0,South,23.0,31.1,N/A,,Haze,180,2013-06-07 14:58:00
11:58 AM,81.0,75.0,82,29.69,5.0,South,26.5,38.0,0.00,,Haze,180,2013-06-07 15:58:00
12:58 PM,79.0,73.9,84,29.67,3.0,SSW,23.0,35.7,0.01,Rain,Light Rain,200,2013-06-07 16:58:00
1:00 PM,78.8,73.4,83,29.67,1.8,SSW,23.0,35.7,0.05,Rain,Rain,200,2013-06-07 17:00:00
1:02 PM,77.0,73.4,89,29.67,1.0,South,31.1,47.2,0.10,Rain,Heavy Rain,190,2013-06-07 17:02:00
1:04 PM,75.2,73.4,94,29.67,0.8,SSW,26.5,47.2,0.13,Rain,Heavy Rain,200,2013-06-07 17:04:00
1:13 PM,75.2,73.4,94,29.66,1.2,South,32.2,46.0,0.17,Rain,Light Rain,190,2013-06-07 17:13:00
1:17 PM,75.2,73.4,94,29.66,4.0,South,28.8,44.9,0.17,,Overcast,190,2013-06-07 17:17:00
1:29 PM,78.8,73.4,83,29.65,6.0,South,26.5,41.4,0.17,,Overcast,190,2013-06-07 17:29:00
1:58 PM,79.0,75.0,88,29.64,6.0,SSW,31.1,40.3,0.17,,Overcast,200,2013-06-07 17:58:00
2:58 PM,78.1,72.0,81,29.63,6.0,SSW,26.5,40.3,N/A,,Haze,200,2013-06-07 18:58:00
3:58 PM,77.0,72.0,84,29.63,4.0,SSW,33.4,44.9,N/A,,Haze,210,2013-06-07 19:58:00
4:58 PM,79.0,73.0,82,29.63,7.0,SSW,28.8,49.5,N/A,,Overcast,210,2013-06-07 20:58:00
5:27 PM,77.0,71.6,83,29.64,6.0,SW,27.6,40.3,N/A,,Haze,220,2013-06-07 21:27:00
5:58 PM,77.0,73.0,88,29.66,7.0,SW,25.3,39.1,N/A,,Mostly Cloudy,220,2013-06-07 21:58:00
6:58 PM,77.0,72.0,84,29.70,8.0,SW,25.3,32.2,N/A,,Scattered Clouds,230,2013-06-07 22:58:00
7:58 PM,77.0,71.1,82,29.74,10.0,WSW,19.6,29.9,0.00,,Overcast,240,2013-06-07 23:58:00
8:58 PM,75.9,72.0,87,29.78,10.0,SW,20.7,27.6,N/A,,Clear,230,2013-06-08 00:58:00
9:58 PM,75.9,72.0,87,29.84,10.0,WSW,15.0,23.0,N/A,,Clear,240,2013-06-08 01:58:00
10:58 PM,75.0,73.0,94,29.87,9.0,SW,15.0,-,N/A,,Scattered Clouds,230,2013-06-08 02:58:00
11:09 PM,75.2,73.4,94,29.87,8.0,SW,13.8,-,N/A,,Mostly Cloudy,230,2013-06-08 03:09:00
11:39 PM,75.2,73.4,94,29.87,8.0,SW,15.0,-,N/A,,Scattered Clouds,220,2013-06-08 03:39:00
11:58 PM,75.0,73.9,96,29.89,8.0,SW,13.8,-,N/A,,Scattered Clouds,220,2013-06-08 03:58:00